[[{"header":{"parameterUnit":"m.s-1","parameterCategory":1,"la1":30.2991,"la2":30.254,"lo1":-89.0895,"lo2":-89.0444,"dy":0.0017,"dx":0.0017,"nx":28,"ny":28,"refTime":"2024-05-15T09:00:00:Z","depth":0,"parameterNumber":2,"parameterNumberName":"U-component_of_WINDS"},"data":[0,0,0,0,0,0,0,0,0,0,0,0,0,0,0,0,0,0,0,0,0,0,0,0,0,0,0,0,0,0,0,0,0,0,0,0,0,0,0,0,0,0,0,0,0,0,0,0,0,0,0,0,0,0,0,0,0,0,-0.7675,-0.7675,0,-0.7623,-0.7622,-0.7622,-0.7651,-0.7653,-0.7654,-0.7656,-0.7599,-0.7596,-0.7593,0,0,0,0,0,0,0,0,0,0,0,0,0,-0.7798,-0.7795,-0.7675,-0.7675,-0.7674,-0.7623,-0.7622,-0.7622,-0.7651,-0.7653,-0.7655,-0.7656,-0.76,-0.7596,-0.7593,0,0,0,0,0,0,0,0,0,0,0,0,0,-0.7745,-0.7794,-0.7675,-0.7683,-0.7683,-0.7623,-0.7622,-0.7622,-0.7651,-0.7653,-0.7655,-0.7657,-0.7601,-0.7597,-0.7592,-0.7522,0,0,-0.7579,-0.7577,0,0,0,0,0,0,0,0,-0.7748,-0.774,-0.7682,-0.7682,-0.7682,-0.7646,-0.7645,-0.7588,-0.765,-0.7663,-0.7656,-0.7658,-0.7612,-0.7607,-0.7593,-0.7519,-0.7517,-0.7579,-0.7576,-0.7574,-0.7573,0,0,0,0,0,0,0,-0.7751,-0.7743,-0.7655,-0.7681,-0.7681,-0.7688,-0.7682,-0.7634,-0.7626,-0.7662,-0.7664,-0.7657,-0.7613,-0.7597,-0.7591,-0.7516,-0.7579,-0.7575,-0.7572,-0.7571,-0.7382,-0.738,0,0,0,0,0,0,-0.7755,-0.7745,-0.7656,-0.7653,-0.7721,-0.7684,-0.7678,-0.7655,-0.7626,-0.7624,-0.7656,-0.7659,-0.7603,-0.7596,-0.759,-0.7505,-0.7574,-0.757,-0.7568,-0.7384,-0.7382,-0.7379,0,0,0,0,0,0,-0.7757,-0.7747,-0.7658,-0.77,-0.7689,-0.7679,-0.7654,-0.7653,-0.7637,-0.7622,-0.762,-0.7641,-0.7604,-0.7596,-0.7539,-0.7503,-0.7568,-0.7564,-0.7387,-0.7384,-0.738,-0.7335,0,0,0,0,0,0,-0.7761,-0.7747,-0.7721,-0.7699,-0.7687,-0.7609,-0.7651,-0.7651,-0.763,-0.7634,-0.7608,-0.7605,-0.7605,-0.7545,-0.7534,-0.7499,-0.7561,-0.739,-0.7386,-0.7381,-0.734,-0.733,-0.7322,0,0,0,0,0,-0.7765,-0.7709,-0.7719,-0.7709,-0.7654,-0.7607,-0.76,-0.7602,-0.7627,-0.76,-0.759,-0.7606,-0.7509,-0.7539,-0.7527,-0.7489,-0.7393,-0.7387,-0.7382,-0.7343,-0.7332,-0.7322,0,0,0,0,0,0,-0.7726,-0.7707,-0.7717,-0.7653,-0.7632,-0.7612,-0.7578,-0.759,-0.756,-0.7564,-0.7568,-0.7562,-0.7502,-0.7491,-0.7524,-0.742,-0.7455,-0.7447,-0.743,-0.7419,-0.741,-0.7414,-0.7557,0,0,0,0,0,-0.771,-0.7675,-0.7659,-0.7604,-0.7593,-0.7587,-0.7567,-0.7571,-0.7548,-0.7539,-0.7525,-0.7501,-0.7465,-0.7442,-0.7408,-0.7339,-0.7333,-0.7307,-0.7298,-0.7291,-0.7284,-0.7246,-0.7234,-0.7361,-0.7361,-0.7361,0,0,-0.7676,-0.7662,-0.7639,-0.7596,-0.758,-0.7542,-0.7579,-0.7538,-0.7509,-0.7532,-0.7477,-0.7467,-0.744,-0.7377,-0.7348,-0.7365,-0.7248,-0.7284,-0.7279,-0.7275,-0.7239,-0.7227,-0.7216,-0.7357,-0.7358,-0.7359,0,0,-0.7596,-0.7581,-0.7534,-0.7517,-0.7493,-0.7489,-0.7478,-0.7457,-0.7451,-0.7397,-0.7413,-0.7379,-0.7317,-0.7298,-0.728,-0.7194,-0.7207,-0.7183,-0.7137,-0.71,-0.709,-0.7081,-0.7049,-0.7038,-0.7176,-0.7176,-0.7176,0,-0.7556,-0.7501,-0.7507,-0.7465,-0.7445,-0.7466,-0.7417,-0.7401,-0.7366,-0.7351,-0.7371,-0.7295,-0.7279,-0.7211,-0.719,-0.7175,-0.7162,-0.7185,-0.7091,-0.7082,-0.7074,-0.7044,-0.7032,-0.7173,-0.7173,-0.7173,-0.7174,0,-0.7454,-0.7415,-0.738,-0.7347,-0.7324,-0.7278,-0.7277,-0.7253,-0.7259,-0.7254,-0.7198,-0.718,-0.7143,-0.7128,-0.7133,-0.706,-0.7072,-0.7091,-0.7126,-0.7059,-0.7031,-0.7019,-0.7169,-0.717,-0.7171,-0.7171,0,0,-0.7345,-0.7318,-0.7304,-0.729,-0.7265,-0.7235,-0.7191,-0.7156,-0.7134,-0.711,-0.7072,-0.7021,-0.7039,-0.7019,-0.7022,-0.699,-0.6922,-0.7014,-0.7013,-0.6997,-0.684,-0.6825,-0.6811,-0.6932,-0.6929,-0.6928,-0.6842,0,-0.7262,-0.7185,-0.719,-0.7117,-0.7082,-0.7102,-0.7063,-0.7043,-0.7037,-0.7005,-0.6999,-0.6962,-0.6989,-0.6977,-0.6946,-0.6937,-0.6891,-0.6943,-0.6895,-0.6893,-0.6899,-0.6797,-0.678,-0.67,-0.6831,-0.683,-0.6828,0,-0.7154,-0.7127,-0.7052,-0.7033,-0.7018,-0.6983,-0.6952,-0.6922,-0.69,-0.6898,-0.6876,-0.6885,-0.6839,-0.6877,-0.6814,-0.6849,-0.683,-0.6823,-0.682,-0.6814,-0.6855,-0.6787,-0.6675,-0.6662,-0.6811,-0.6812,-0.6814,0,-0.7081,-0.7026,-0.6974,-0.6961,-0.6938,-0.6913,-0.6902,-0.6882,-0.6861,-0.6834,-0.682,-0.6788,-0.6769,-0.6743,-0.6743,-0.6771,-0.6679,-0.6716,-0.6675,-0.6675,-0.6653,-0.6654,-0.6535,-0.6643,-0.6643,-0.6643,-0.6644,0,-0.6986,-0.6939,-0.6941,-0.6908,-0.6856,-0.6862,-0.681,-0.6801,-0.6784,-0.675,-0.6765,-0.6732,-0.6735,-0.6702,-0.6701,-0.6649,-0.6641,-0.6637,-0.6637,-0.6634,-0.6635,-0.6621,-0.6626,-0.664,-0.6641,-0.6641,-0.6642,0,-0.6895,-0.6894,-0.6839,-0.6822,-0.6817,-0.6779,-0.6764,-0.6733,-0.673,-0.6686,-0.6676,-0.667,-0.6632,-0.663,-0.6585,-0.6585,-0.6521,-0.6528,-0.6528,-0.6529,-0.6487,-0.6491,-0.6353,-0.6335,-0.6456,-0.6455,-0.6454,0,-0.6834,-0.6798,-0.6779,-0.6757,-0.6745,-0.6711,-0.669,-0.6695,-0.6673,-0.6646,-0.6618,-0.6581,-0.6552,-0.649,-0.6481,-0.6447,-0.6453,-0.6407,-0.6447,-0.6446,-0.6451,-0.6452,-0.6448,-0.6398,-0.6397,-0.6396,-0.6395,0,-0.6725,-0.6727,-0.6698,-0.6667,-0.6643,-0.6619,-0.6597,-0.6578,-0.6581,-0.6555,-0.6517,-0.6494,-0.645,-0.6413,-0.6381,-0.6369,-0.6381,-0.6383,-0.6371,-0.6367,-0.6369,-0.6367,-0.6505,-0.6385,-0.6386,-0.6387,-0.6388,-0.6388,-0.6646,-0.6616,-0.6597,-0.6564,-0.6548,-0.6527,-0.6498,-0.6491,-0.646,-0.6425,-0.643,-0.6387,-0.6367,-0.6324,-0.631,-0.6276,-0.6291,-0.6275,-0.627,-0.6266,-0.6261,-0.6376,-0.627,-0.6271,-0.6271,-0.6271,-0.6271,0,-0.6538,-0.6528,-0.6497,-0.6466,-0.644,-0.6457,-0.6433,-0.6409,-0.6372,-0.6353,-0.6324,-0.6281,-0.6246,-0.6234,-0.62,-0.6175,-0.618,-0.6166,-0.6167,-0.6164,-0.6249,-0.6262,-0.6162,-0.6163,-0.6163,-0.6163,-0.6163,-0.6163,-0.6478,-0.6427,-0.6427,-0.6368,-0.6358,-0.6318,-0.6303,-0.6284,-0.6268,-0.6219,-0.6191,-0.6184,-0.6168,-0.6133,-0.6101,-0.6099,-0.6085,-0.6068,-0.6067,-0.6147,-0.6158,-0.6168,-0.618,-0.6065,-0.6065,-0.5984,-0.5984,-0.5983]},{"header":{"parameterUnit":"m.s-1","parameterCategory":1,"la1":30.2991,"la2":30.254,"lo1":-89.0895,"lo2":-89.0444,"dy":0.0017,"dx":0.0017,"nx":28,"ny":28,"refTime":"2024-05-15T09:00:00:Z","depth":0,"parameterNumber":3,"parameterNumberName":"V-component_of_WINDS"},"data":[0,0,0,0,0,0,0,0,0,0,0,0,0,0,0,0,0,0,0,0,0,0,0,0,0,0,0,0,0,0,0,0,0,0,0,0,0,0,0,0,0,0,0,0,0,0,0,0,0,0,0,0,0,0,0,0,0,0,1.5883,1.5883,0,1.5818,1.5817,1.5816,1.5827,1.5828,1.5829,1.583,1.5759,1.5756,1.5753,0,0,0,0,0,0,0,0,0,0,0,0,0,1.6015,1.6013,1.5883,1.5883,1.5882,1.5818,1.5817,1.5816,1.5827,1.5828,1.5829,1.5831,1.576,1.5756,1.5753,0,0,0,0,0,0,0,0,0,0,0,0,0,1.5954,1.6012,1.5884,1.588,1.5879,1.5818,1.5817,1.5816,1.5826,1.5828,1.583,1.5831,1.5761,1.5757,1.5752,1.569,0,0,1.5738,1.5737,0,0,0,0,0,0,0,0,1.5958,1.595,1.5881,1.588,1.5879,1.5832,1.5837,1.5773,1.5826,1.5846,1.583,1.5832,1.5782,1.5775,1.5759,1.5687,1.5683,1.5738,1.5735,1.5733,1.5732,0,0,0,0,0,0,0,1.5962,1.5952,1.5857,1.588,1.5878,1.588,1.5873,1.5825,1.5805,1.5844,1.5845,1.5837,1.5781,1.5763,1.5758,1.5682,1.5738,1.5734,1.5731,1.573,1.5555,1.5553,0,0,0,0,0,0,1.5968,1.5956,1.5859,1.5855,1.5923,1.5876,1.5869,1.5845,1.5805,1.5801,1.5836,1.5838,1.577,1.5763,1.5755,1.5679,1.5733,1.5729,1.5727,1.5557,1.5555,1.5553,0,0,0,0,0,0,1.5971,1.5959,1.5862,1.5906,1.5893,1.5872,1.5846,1.5843,1.5825,1.5799,1.5795,1.5822,1.5771,1.5761,1.5706,1.5677,1.5727,1.5723,1.556,1.5556,1.5554,1.5528,0,0,0,0,0,0,1.5974,1.596,1.5937,1.5905,1.5891,1.5815,1.5844,1.5841,1.5818,1.582,1.5785,1.578,1.5772,1.5713,1.5702,1.5672,1.572,1.5562,1.5558,1.5555,1.5531,1.5524,1.5519,0,0,0,0,0,1.5979,1.5932,1.5936,1.5924,1.5862,1.5814,1.5805,1.5798,1.5816,1.5792,1.5775,1.5781,1.5682,1.5707,1.5695,1.5663,1.5564,1.5559,1.5555,1.5534,1.5526,1.5519,0,0,0,0,0,0,1.5959,1.5927,1.5932,1.5873,1.5846,1.5816,1.5785,1.5789,1.5756,1.5759,1.575,1.5742,1.5686,1.5669,1.5697,1.5601,1.5625,1.5618,1.5614,1.5606,1.5599,1.5604,1.5716,0,0,0,0,0,1.5948,1.5913,1.5886,1.5837,1.5823,1.5806,1.5785,1.5782,1.5753,1.5741,1.572,1.5691,1.5654,1.5629,1.5593,1.5529,1.5521,1.5501,1.5495,1.549,1.5484,1.5448,1.5439,1.5538,1.5538,1.5538,0,0,1.5924,1.5903,1.588,1.5832,1.5811,1.5773,1.5797,1.5756,1.5728,1.5735,1.5682,1.5665,1.5632,1.5573,1.5545,1.5557,1.5455,1.5484,1.5481,1.5477,1.5443,1.5434,1.5425,1.5535,1.5536,1.5536,0,0,1.5862,1.5842,1.5799,1.5777,1.5746,1.5735,1.5725,1.5694,1.5684,1.5631,1.5635,1.5601,1.5536,1.5513,1.5492,1.5421,1.5426,1.541,1.5376,1.5342,1.5334,1.5327,1.5302,1.5293,1.5404,1.5404,1.5403,0,1.5836,1.5781,1.5775,1.5734,1.5713,1.5719,1.5674,1.5653,1.5611,1.5595,1.5609,1.5529,1.5507,1.5442,1.5425,1.5408,1.5395,1.5413,1.5336,1.5329,1.5322,1.5298,1.5288,1.5402,1.5402,1.5402,1.5402,0,1.575,1.5712,1.568,1.5641,1.5615,1.5573,1.556,1.5535,1.5534,1.5521,1.5467,1.5441,1.54,1.5384,1.5382,1.5319,1.5327,1.5339,1.5363,1.5311,1.5288,1.5278,1.5399,1.54,1.54,1.5401,0,0,1.5672,1.5631,1.562,1.5602,1.5568,1.5537,1.5495,1.5456,1.5434,1.5405,1.5368,1.5314,1.5324,1.5301,1.5296,1.5267,1.5212,1.5282,1.5281,1.5269,1.5139,1.5131,1.512,1.5215,1.5213,1.5212,1.5142,0,1.5606,1.5532,1.5527,1.5459,1.5423,1.5429,1.5392,1.5366,1.5354,1.5321,1.5306,1.5268,1.5285,1.5271,1.5242,1.5225,1.5185,1.523,1.5179,1.5178,1.5187,1.5108,1.5098,1.5033,1.5133,1.5131,1.513,0,1.5519,1.5489,1.5418,1.539,1.5374,1.5341,1.5305,1.5274,1.5244,1.5237,1.5212,1.5211,1.5166,1.5193,1.513,1.5161,1.514,1.5128,1.5126,1.512,1.515,1.5099,1.5013,1.5003,1.5116,1.5117,1.5118,0,1.5469,1.541,1.536,1.5345,1.531,1.5287,1.5271,1.5244,1.5221,1.5189,1.5174,1.5137,1.5116,1.5087,1.5076,1.5097,1.5013,1.5039,1.5005,1.5005,1.4987,1.4988,1.4895,1.4974,1.4974,1.4975,1.4975,0,1.5395,1.5352,1.5338,1.5307,1.5258,1.5252,1.5203,1.5189,1.5164,1.513,1.5133,1.51,1.5088,1.5054,1.5045,1.4994,1.4984,1.4977,1.4975,1.4976,1.4977,1.4962,1.4965,1.4972,1.4973,1.4973,1.4974,0,1.533,1.5319,1.5266,1.5238,1.523,1.5195,1.517,1.514,1.5129,1.5085,1.5075,1.5056,1.5015,1.5002,1.4952,1.4946,1.4887,1.4889,1.4897,1.4896,1.4863,1.4866,1.4756,1.4741,1.4831,1.483,1.4829,0,1.5284,1.5251,1.522,1.5198,1.5182,1.5146,1.5123,1.5115,1.5091,1.5056,1.503,1.499,1.4957,1.4892,1.4873,1.4835,1.4836,1.48,1.483,1.4832,1.4834,1.4836,1.4832,1.4794,1.4793,1.4792,1.4792,0,1.5202,1.5199,1.5166,1.5132,1.5105,1.5077,1.505,1.5031,1.502,1.4992,1.4951,1.4926,1.4877,1.4836,1.4798,1.478,1.4783,1.4783,1.4772,1.4773,1.4779,1.4775,1.4881,1.4785,1.4785,1.4786,1.4786,1.4787,1.5145,1.5116,1.509,1.5053,1.5033,1.5008,1.4978,1.4963,1.493,1.489,1.4887,1.4843,1.4814,1.4763,1.4743,1.4708,1.4718,1.4703,1.4699,1.4696,1.4693,1.4785,1.4701,1.4701,1.4701,1.4701,1.4701,0,1.5063,1.5047,1.5014,1.4977,1.4948,1.4955,1.4926,1.4901,1.4863,1.4837,1.4805,1.4758,1.4719,1.4698,1.4659,1.4634,1.4635,1.4624,1.4626,1.4621,1.4686,1.4699,1.4625,1.4625,1.4625,1.4625,1.4625,1.4625,1.5017,1.4968,1.4962,1.4902,1.4886,1.4844,1.4826,1.4803,1.4782,1.473,1.4699,1.4685,1.4661,1.462,1.4585,1.4579,1.4564,1.4553,1.4548,1.4609,1.4617,1.4624,1.4636,1.455,1.455,1.4486,1.4485,1.4485]}]]